[[{"header":{"parameterUnit":"m.s-1","parameterCategory":1,"la1":30.2991,"la2":30.254,"lo1":-89.0895,"lo2":-89.0444,"dy":0.0017,"dx":0.0017,"nx":28,"ny":28,"refTime":"2023-09-16T21:00:00:Z","depth":0,"parameterNumber":2,"parameterNumberName":"U-component_of_WINDS"},"data":[0,0,0,0,0,0,0,0,0,0,0,0,0,0,0,0,0,0,0,0,0,0,0,0,0,0,0,0,0,0,0,0,0,0,0,0,0,0,0,0,0,0,0,0,0,0,0,0,0,0,0,0,0,0,0,0,0,0,1.1865,1.1866,0,1.1935,1.1936,1.1937,1.1922,1.192,1.1919,1.1918,1.1992,1.1995,1.1998,0,0,0,0,0,0,0,0,0,0,0,0,0,1.1724,1.1726,1.1865,1.1866,1.1867,1.1935,1.1936,1.1937,1.1922,1.192,1.1919,1.1917,1.1991,1.1995,1.1999,0,0,0,0,0,0,0,0,0,0,0,0,0,1.1789,1.1727,1.1865,1.1868,1.1869,1.1935,1.1936,1.1937,1.1922,1.192,1.1918,1.1917,1.199,1.1995,1.1999,1.2068,0,0,1.2014,1.2016,0,0,0,0,0,0,0,0,1.1785,1.1794,1.1866,1.1868,1.1869,1.1918,1.1914,1.1981,1.1923,1.1902,1.1918,1.1916,1.1969,1.1976,1.1993,1.2072,1.2075,1.2014,1.2017,1.2019,1.2021,0,0,0,0,0,0,0,1.1781,1.1791,1.1893,1.1868,1.1869,1.1867,1.1874,1.1926,1.1946,1.1904,1.1903,1.1911,1.1969,1.1988,1.1995,1.2076,1.2014,1.2018,1.2021,1.2023,1.2221,1.2223,0,0,0,0,0,0,1.1775,1.1787,1.1891,1.1895,1.1821,1.1871,1.1879,1.1904,1.1945,1.195,1.1913,1.191,1.1981,1.1989,1.1997,1.2084,1.2019,1.2024,1.2027,1.2218,1.2221,1.2224,0,0,0,0,0,0,1.1772,1.1784,1.1888,1.1841,1.1854,1.1876,1.1904,1.1907,1.1925,1.1952,1.1956,1.1928,1.198,1.1991,1.2052,1.2087,1.2026,1.203,1.2216,1.2219,1.2223,1.2257,0,0,0,0,0,0,1.1767,1.1783,1.1808,1.1842,1.1857,1.194,1.1906,1.1909,1.1934,1.1931,1.1968,1.1972,1.1979,1.2045,1.2057,1.2092,1.2034,1.2213,1.2217,1.2222,1.2253,1.2261,1.2268,0,0,0,0,0,1.1762,1.1814,1.1809,1.1822,1.1888,1.1942,1.195,1.1957,1.1936,1.1963,1.1981,1.1971,1.2081,1.2051,1.2064,1.2102,1.2211,1.2216,1.2221,1.2249,1.2259,1.2268,0,0,0,0,0,0,1.1783,1.1818,1.1813,1.1877,1.1907,1.1939,1.1972,1.1967,1.2004,1.2,1.2007,1.2016,1.2079,1.2097,1.2063,1.2174,1.2143,1.2151,1.216,1.217,1.2177,1.2173,1.2038,0,0,0,0,0,1.1795,1.1834,1.1863,1.1917,1.1932,1.195,1.1973,1.1976,1.2008,1.202,1.2042,1.2074,1.2117,1.2144,1.2184,1.2255,1.2265,1.2288,1.2296,1.2302,1.231,1.2353,1.2365,1.2241,1.2241,1.2241,0,0,1.182,1.1844,1.1868,1.1922,1.1945,1.1988,1.196,1.2006,1.2038,1.2027,1.2087,1.2105,1.2142,1.2209,1.224,1.2226,1.2346,1.2309,1.2314,1.2318,1.236,1.2372,1.2382,1.2245,1.2244,1.2244,0,0,1.1888,1.1909,1.1958,1.1983,1.2019,1.2031,1.2043,1.2077,1.2089,1.2149,1.2143,1.2183,1.2254,1.2282,1.2305,1.2389,1.2383,1.2402,1.2443,1.2485,1.2495,1.2504,1.2537,1.2548,1.2409,1.2409,1.2409,0,1.1915,1.1978,1.1984,1.2031,1.2056,1.2049,1.2101,1.2124,1.2172,1.2191,1.2174,1.2267,1.229,1.2366,1.2387,1.2405,1.2422,1.2397,1.2493,1.2502,1.251,1.2542,1.2554,1.2411,1.2411,1.2411,1.241,0,1.2011,1.2055,1.209,1.2137,1.2167,1.2215,1.2232,1.2261,1.2263,1.2278,1.2342,1.2371,1.2418,1.2437,1.2438,1.2515,1.2505,1.249,1.246,1.2524,1.2554,1.2566,1.2414,1.2414,1.2413,1.2412,0,0,1.2091,1.2144,1.2157,1.218,1.2221,1.2257,1.2307,1.2354,1.2381,1.2415,1.246,1.2523,1.2511,1.2538,1.2543,1.258,1.2649,1.2561,1.2562,1.2579,1.274,1.2752,1.2766,1.2645,1.2647,1.2649,1.2738,0,1.2165,1.2253,1.2262,1.2342,1.2385,1.2381,1.2426,1.2458,1.2474,1.2515,1.2533,1.2579,1.2558,1.2575,1.2611,1.2633,1.2682,1.2626,1.269,1.2692,1.2682,1.2781,1.2793,1.2876,1.275,1.2752,1.2753,0,1.2262,1.23,1.2385,1.2424,1.2443,1.2482,1.2528,1.2566,1.2604,1.2614,1.2646,1.2647,1.2703,1.267,1.2749,1.2711,1.2738,1.2754,1.2757,1.2764,1.2727,1.2794,1.2902,1.2915,1.2771,1.277,1.2768,0,1.2316,1.2389,1.245,1.2469,1.2516,1.2545,1.2566,1.2601,1.263,1.2671,1.2691,1.2738,1.2764,1.2802,1.2818,1.2792,1.2897,1.2865,1.291,1.291,1.2932,1.2931,1.3049,1.2947,1.2946,1.2946,1.2946,0,1.2399,1.2451,1.2475,1.2513,1.2573,1.2585,1.2644,1.2664,1.2697,1.2741,1.274,1.2782,1.2798,1.2844,1.2856,1.2922,1.2933,1.2945,1.2948,1.2946,1.2945,1.2965,1.296,1.2949,1.2949,1.2948,1.2947,0,1.2469,1.2487,1.2554,1.2593,1.2605,1.2648,1.2683,1.2721,1.2738,1.2794,1.2808,1.2835,1.2889,1.2908,1.2973,1.2982,1.3059,1.3056,1.3046,1.3048,1.3092,1.3089,1.3228,1.3249,1.3131,1.3132,1.3133,0,1.2521,1.2562,1.2607,1.2636,1.2658,1.2705,1.2735,1.2749,1.2781,1.283,1.2863,1.2917,1.296,1.3047,1.3074,1.3125,1.3125,1.317,1.3132,1.3131,1.3129,1.3127,1.3133,1.3177,1.3179,1.318,1.318,0,1.2613,1.2621,1.2664,1.2712,1.2748,1.2786,1.2824,1.2848,1.2868,1.2905,1.296,1.2994,1.3062,1.3116,1.3169,1.3194,1.3192,1.3192,1.3206,1.3205,1.3199,1.3206,1.3068,1.3189,1.3188,1.3188,1.3187,1.3187,1.2678,1.2715,1.2754,1.2803,1.2833,1.2869,1.2908,1.2931,1.2977,1.3033,1.3039,1.3099,1.3141,1.3212,1.3239,1.3288,1.3276,1.3295,1.33,1.3305,1.331,1.319,1.3298,1.3298,1.3297,1.3297,1.3297,0,1.2772,1.2797,1.2843,1.2896,1.2936,1.293,1.2973,1.3007,1.306,1.3098,1.3142,1.3207,1.3261,1.3294,1.3349,1.3383,1.3384,1.3397,1.3395,1.3402,1.3316,1.33,1.3395,1.3395,1.3395,1.3395,1.3395,1.3395,1.2826,1.289,1.2903,1.2985,1.301,1.3069,1.3094,1.3129,1.316,1.3233,1.3278,1.3298,1.3336,1.3394,1.3445,1.3454,1.3475,1.349,1.3498,1.3417,1.3407,1.3398,1.3383,1.3494,1.3494,1.358,1.3581,1.3582]},{"header":{"parameterUnit":"m.s-1","parameterCategory":1,"la1":30.2991,"la2":30.254,"lo1":-89.0895,"lo2":-89.0444,"dy":0.0017,"dx":0.0017,"nx":28,"ny":28,"refTime":"2023-09-16T21:00:00:Z","depth":0,"parameterNumber":3,"parameterNumberName":"V-component_of_WINDS"},"data":[0,0,0,0,0,0,0,0,0,0,0,0,0,0,0,0,0,0,0,0,0,0,0,0,0,0,0,0,0,0,0,0,0,0,0,0,0,0,0,0,0,0,0,0,0,0,0,0,0,0,0,0,0,0,0,0,0,0,-3.4164,-3.4163,0,-3.4018,-3.4016,-3.4014,-3.3907,-3.3906,-3.3905,-3.3905,-3.3743,-3.3739,-3.3736,0,0,0,0,0,0,0,0,0,0,0,0,0,-3.4339,-3.4336,-3.4164,-3.4163,-3.4161,-3.4018,-3.4016,-3.4014,-3.3907,-3.3906,-3.3905,-3.3904,-3.3744,-3.374,-3.3736,0,0,0,0,0,0,0,0,0,0,0,0,0,-3.4235,-3.4336,-3.4165,-3.4091,-3.4082,-3.4018,-3.4016,-3.4013,-3.3908,-3.3906,-3.3905,-3.3904,-3.3745,-3.374,-3.3735,-3.3729,0,0,-3.3719,-3.3717,0,0,0,0,0,0,0,0,-3.4241,-3.4228,-3.4103,-3.4096,-3.4086,-3.398,-3.4018,-3.3918,-3.3908,-3.3974,-3.3905,-3.3903,-3.3822,-3.381,-3.3785,-3.3722,-3.3715,-3.3719,-3.3715,-3.3713,-3.3712,0,0,0,0,0,0,0,-3.4248,-3.4234,-3.4106,-3.4101,-3.4091,-3.406,-3.4044,-3.3999,-3.3906,-3.3968,-3.396,-3.3944,-3.3817,-3.3791,-3.3781,-3.3712,-3.3719,-3.3714,-3.3711,-3.3709,-3.3631,-3.3632,0,0,0,0,0,0,-3.4269,-3.4241,-3.4111,-3.4102,-3.4162,-3.4058,-3.404,-3.4015,-3.3907,-3.3889,-3.3946,-3.394,-3.38,-3.3787,-3.3775,-3.3758,-3.3713,-3.3708,-3.3705,-3.363,-3.3632,-3.3633,0,0,0,0,0,0,-3.4273,-3.4258,-3.4116,-3.4169,-3.4149,-3.4057,-3.4029,-3.4013,-3.3987,-3.389,-3.3872,-3.3937,-3.3799,-3.3782,-3.3741,-3.3751,-3.3706,-3.3701,-3.3629,-3.3631,-3.3632,-3.3726,0,0,0,0,0,0,-3.4278,-3.426,-3.426,-3.417,-3.4146,-3.409,-3.403,-3.4011,-3.3979,-3.397,-3.3877,-3.386,-3.3796,-3.375,-3.3736,-3.3743,-3.3697,-3.3628,-3.363,-3.3632,-3.3722,-3.3731,-3.3739,0,0,0,0,0,-3.4285,-3.4291,-3.4261,-3.4246,-3.4145,-3.4091,-3.4077,-3.4007,-3.3981,-3.3977,-3.3915,-3.3863,-3.3753,-3.3746,-3.373,-3.3735,-3.3627,-3.3629,-3.3632,-3.3718,-3.3729,-3.3738,0,0,0,0,0,0,-3.4382,-3.4278,-3.4243,-3.4221,-3.4166,-3.4073,-3.4067,-3.4021,-3.3969,-3.3963,-3.3874,-3.3854,-3.3821,-3.3774,-3.3769,-3.3722,-3.3683,-3.3682,-3.3754,-3.3763,-3.3772,-3.3783,-3.3693,0,0,0,0,0,-3.4401,-3.437,-3.4279,-3.4268,-3.4242,-3.416,-3.4134,-3.4085,-3.4022,-3.3997,-3.3932,-3.387,-3.382,-3.3789,-3.3739,-3.3715,-3.369,-3.371,-3.3718,-3.3726,-3.3725,-3.3704,-3.3711,-3.3641,-3.3641,-3.3641,0,0,-3.4439,-3.4379,-3.4364,-3.4286,-3.4237,-3.4202,-3.4141,-3.4107,-3.4078,-3.399,-3.3948,-3.3898,-3.3822,-3.3789,-3.3771,-3.3749,-3.3739,-3.3729,-3.3735,-3.373,-3.3707,-3.3714,-3.372,-3.3642,-3.3642,-3.3642,0,0,-3.4491,-3.4444,-3.4428,-3.4381,-3.431,-3.4254,-3.4251,-3.4164,-3.4128,-3.4086,-3.4018,-3.398,-3.3899,-3.3847,-3.3809,-3.384,-3.3788,-3.3825,-3.3868,-3.3849,-3.3854,-3.3859,-3.3865,-3.387,-3.3825,-3.3826,-3.3826,0,-3.4547,-3.4496,-3.4425,-3.4395,-3.4361,-3.4283,-3.4263,-3.4219,-3.4134,-3.4109,-3.4087,-3.3981,-3.3924,-3.3876,-3.3883,-3.3857,-3.3846,-3.3835,-3.386,-3.3864,-3.3866,-3.3872,-3.3875,-3.3831,-3.383,-3.3829,-3.3829,0,-3.4565,-3.4531,-3.4526,-3.4448,-3.4413,-3.4389,-3.431,-3.4282,-3.4236,-3.4182,-3.4136,-3.4066,-3.3998,-3.3983,-3.3937,-3.3927,-3.3915,-3.3878,-3.3836,-3.3879,-3.3883,-3.3884,-3.3837,-3.3836,-3.3834,-3.3833,0,0,-3.4673,-3.4558,-3.4556,-3.4519,-3.4433,-3.4403,-3.4372,-3.431,-3.4286,-3.4229,-3.4198,-3.413,-3.4094,-3.4052,-3.3998,-3.3981,-3.4005,-3.3945,-3.3941,-3.3955,-3.3984,-3.4012,-3.4016,-3.3971,-3.3971,-3.3971,-3.399,0,-3.4709,-3.4656,-3.4591,-3.4557,-3.4521,-3.4446,-3.4418,-3.436,-3.4308,-3.4267,-3.4207,-3.4159,-3.4118,-3.4091,-3.4072,-3.4007,-3.4009,-3.4004,-3.3936,-3.3935,-3.3956,-3.4018,-3.4047,-3.4068,-3.3991,-3.3991,-3.3991,0,-3.4745,-3.4695,-3.4659,-3.4574,-3.4556,-3.4534,-3.4469,-3.4433,-3.4363,-3.4326,-3.4279,-3.4221,-3.418,-3.4145,-3.4084,-3.4083,-3.405,-3.4014,-3.4012,-3.4001,-3.3964,-3.4005,-3.4074,-3.4076,-3.3994,-3.3993,-3.3993,0,-3.4823,-3.4746,-3.4714,-3.4685,-3.4586,-3.4571,-3.4528,-3.4458,-3.4424,-3.4366,-3.4342,-3.4279,-3.4244,-3.4194,-3.4119,-3.4101,-3.4064,-3.4024,-3.4027,-3.4029,-3.4021,-3.4022,-3.4083,-3.4006,-3.4006,-3.4006,-3.4006,0,-3.4869,-3.4849,-3.4748,-3.4728,-3.4701,-3.4625,-3.4599,-3.4549,-3.4487,-3.4451,-3.4381,-3.4349,-3.4253,-3.4208,-3.4148,-3.4104,-3.4089,-3.4054,-3.4038,-3.4059,-3.4063,-3.4035,-3.403,-3.4006,-3.4006,-3.4006,-3.4006,0,-3.4952,-3.4884,-3.4843,-3.4754,-3.4731,-3.4715,-3.4635,-3.461,-3.4555,-3.4511,-3.4496,-3.4406,-3.4349,-3.427,-3.4187,-3.4146,-3.4109,-3.4086,-3.4134,-3.4124,-3.4131,-3.413,-3.4173,-3.4173,-3.41,-3.4101,-3.4101,0,-3.4985,-3.4968,-3.4877,-3.4851,-3.4811,-3.477,-3.4735,-3.4657,-3.4622,-3.4541,-3.4524,-3.4463,-3.4409,-3.432,-3.4244,-3.4179,-3.4151,-3.417,-3.414,-3.4161,-3.4147,-3.4148,-3.4144,-3.4177,-3.4178,-3.4179,-3.418,0,-3.5049,-3.5016,-3.4971,-3.4913,-3.4874,-3.4824,-3.477,-3.4751,-3.4661,-3.4625,-3.4567,-3.4526,-3.4442,-3.438,-3.4305,-3.4254,-3.42,-3.419,-3.4187,-3.4207,-3.4235,-3.4216,-3.4151,-3.4189,-3.4188,-3.4187,-3.4187,-3.4187,-3.5105,-3.5085,-3.5018,-3.4969,-3.4921,-3.4872,-3.4844,-3.4785,-3.4737,-3.4666,-3.4622,-3.4565,-3.4491,-3.4386,-3.4338,-3.4289,-3.4267,-3.4263,-3.4262,-3.4261,-3.4267,-3.4245,-3.4275,-3.4274,-3.4274,-3.4274,-3.4273,0,-3.5162,-3.5116,-3.5072,-3.5,-3.496,-3.4918,-3.4855,-3.4823,-3.4776,-3.4714,-3.4663,-3.4595,-3.4533,-3.4453,-3.4384,-3.436,-3.4333,-3.4344,-3.4343,-3.4332,-3.4292,-3.43,-3.4367,-3.4367,-3.4367,-3.4367,-3.4367,-3.4367,-3.5188,-3.5152,-3.511,-3.5048,-3.4999,-3.4947,-3.4914,-3.4867,-3.4817,-3.4745,-3.4696,-3.4645,-3.4574,-3.4499,-3.4439,-3.4416,-3.4392,-3.441,-3.438,-3.4343,-3.4335,-3.4327,-3.4334,-3.4407,-3.4407,-3.4423,-3.4423,-3.4423]}]]